This is the latest recevied weather packets stored in our database for station/object KB4MLW-13. If no packets are shown the sender has not sent any weather packets the latest 10 day(s).
| Time | Temp. | Humidity | Pressure | Rain* | Wind** | Luminosity | Snow |
|---|---|---|---|---|---|---|---|
| 1788378718 | 35° C | 53% | 1000.3 hPa | 0 mm | - | - | - |
| 1788378658 | 35° C | 54% | 1000.2 hPa | 0 mm | - | - | - |
| 1788378598 | 35° C | 58% | 1000.4 hPa | 0 mm | - | - | - |
| 1788378538 | 35° C | 55% | 1000.6 hPa | 0 mm | - | - | - |
| 1788378448 | 35° C | 56% | 1000.5 hPa | 0 mm | - | - | - |
| 1788378360 | 35° C | 54% | 1000.5 hPa | 0 mm | - | - | - |
| 1788378268 | 35° C | 53% | 1000.4 hPa | 0 mm | - | - | - |
| 1788378178 | 35° C | 54% | 1000.5 hPa | 0 mm | - | - | - |
| 1788378088 | 35° C | 54% | 1000.4 hPa | 0 mm | - | - | - |
| 1788378028 | 35° C | 54% | 1000.4 hPa | 0 mm | - | - | - |
| 1788377968 | 35° C | 54% | 1000.6 hPa | 0 mm | - | - | - |
| 1788377879 | 35° C | 56% | 1000.6 hPa | 0 mm | - | - | - |
| 1788377818 | 35° C | 56% | 1000.5 hPa | 0 mm | - | - | - |
| 1788377758 | 35° C | 54% | 1000.5 hPa | 0 mm | - | - | - |
| 1788377698 | 35° C | 57% | 1000.5 hPa | 0 mm | - | - | - |
| 1788377638 | 34.44° C | 58% | 1000.6 hPa | 0 mm | - | - | - |
| 1788377578 | 34.44° C | 55% | 1000.5 hPa | 0 mm | - | - | - |
| 1788377518 | 34.44° C | 54% | 1000.7 hPa | 0 mm | - | - | - |
| 1788377458 | 34.44° C | 56% | 1000.6 hPa | 0 mm | - | - | - |
| 1788377398 | 34.44° C | 56% | 1000.4 hPa | 0 mm | - | - | - |
| 1788377308 | 35° C | 54% | 1000.6 hPa | 0 mm | - | - | - |
| 1788377248 | 35° C | 54% | 1000.7 hPa | 0 mm | - | - | - |
| 1788377188 | 35° C | 55% | 1000.7 hPa | 0 mm | - | - | - |
| 1788377098 | 34.44° C | 58% | 1000.7 hPa | 0 mm | - | - | - |
| 1788377038 | 34.44° C | 58% | 1000.6 hPa | 0 mm | - | - | - |
* Rain latest hour (hover to see other rain measurements)
** Current wind speed in m/s (hover to see current wind gust speed)